Location: Stull Observatory
(42.2506°N, 77.7903°W)
Time: 23:29:06
(UTC-04:00)

Okean O Rocket - Visible Passes

Search period start: 29 June 2015 00:00
Search period end: 09 July 2015 00:00
Orbit: 625 x 645 km, 98.0° (Epoch: 29 June)

Date Brightness Start Highest point End Pass type
(mag) Time Alt. Az. Time Alt. Az. Time Alt. Az.
29 Jun 1.6 04:35:55 10° N 04:40:22 77° WNW 04:44:44 10° SSW visible
30 Jun 4.0 03:22:40 10° NE 03:25:31 17° E 03:28:29 10° SE visible
30 Jun 2.1 04:57:59 10° N 05:02:14 45° WNW 05:06:24 10° SW visible
01 Jul 3.3 03:43:50 10° NE 03:47:39 28° E 03:51:30 10° SSE visible
02 Jul 2.4 04:05:24 10° NNE 04:09:42 49° E 04:13:58 10° S visible
03 Jul 1.6 04:27:13 10° NNE 04:31:40 85° E 04:36:04 10° SSW visible
04 Jul 4.2 03:14:32 10° ENE 03:16:41 14° E 03:19:03 10° ESE visible
04 Jul 1.8 04:49:13 10° N 04:53:33 55° WNW 04:57:50 10° SSW visible
05 Jul 3.6 03:35:23 10° NE 03:38:53 23° E 03:42:25 10° SSE visible
06 Jul 2.8 03:56:49 10° NNE 04:00:57 39° E 04:05:04 10° SSE visible
07 Jul 1.9 04:18:32 10° NNE 04:22:57 68° E 04:27:18 10° S visible
08 Jul 4.3 03:06:51 10° ENE 03:07:51 11° E 03:09:07 10° ESE visible
08 Jul 1.6 04:40:28 10° N 04:44:52 70° WNW 04:49:12 10° SSW visible
